Time,TemperatureF,DewpointF,PressureIn,WindDirection,WindDirectionDegrees,WindSpeedMPH,WindSpeedGustMPH,Humidity,HourlyPrecipIn,Conditions,Clouds,dailyrainin,SoftwareType,DateUTC
2013-02-01 00:01:00,39.0,18.0,-100.00,North,-999,-999.0,-999.0,42,-99.99,,,-99.99,,2013-02-01 07:01:00,
2013-02-01 00:12:00,39.0,18.0,-100.00,North,-999,-999.0,-999.0,42,-99.99,,,-99.99,,2013-02-01 07:12:00,
2013-02-01 00:21:00,39.0,18.0,-100.00,North,-999,-999.0,-999.0,42,-99.99,,,-99.99,,2013-02-01 07:21:00,
2013-02-01 00:31:00,38.0,15.0,-100.00,North,-999,-999.0,-999.0,38,-99.99,,,-99.99,,2013-02-01 07:31:00,
2013-02-01 00:42:00,40.0,-99.9,-100.00,North,-999,-999.0,-999.0,-999,-99.99,,,0.00,,2013-02-01 07:42:00,
2013-02-01 00:52:00,39.0,10.0,-100.00,North,-999,-999.0,-999.0,29,-99.99,,,-99.99,,2013-02-01 07:52:00,
2013-02-01 01:02:00,-999.0,-99.9,-100.00,West,270,2.0,-999.0,-999,-99.99,,,-99.99,,2013-02-01 08:02:00,
2013-02-01 01:11:00,-999.0,-99.9,-100.00,West,270,2.0,-999.0,-999,-99.99,,,-99.99,,2013-02-01 08:11:00,
2013-02-01 01:21:00,41.0,11.0,-100.00,North,-999,-999.0,-999.0,29,-99.99,,,-99.99,,2013-02-01 08:21:00,
2013-02-01 01:31:00,41.0,11.0,-100.00,North,-999,-999.0,-999.0,29,-99.99,,,-99.99,,2013-02-01 08:31:00,
2013-02-01 01:42:00,-999.0,-99.9,-100.00,WSW,258,3.0,-999.0,-999,-99.99,,,-99.99,,2013-02-01 08:42:00,
2013-02-01 01:52:00,40.0,7.0,-100.00,North,-999,-999.0,-999.0,25,-99.99,,,-99.99,,2013-02-01 08:52:00,
2013-02-01 02:01:00,40.0,7.0,-100.00,North,-999,-999.0,-999.0,25,-99.99,,,-99.99,,2013-02-01 09:01:00,
2013-02-01 02:11:00,40.0,7.0,-100.00,North,-999,-999.0,-999.0,25,-99.99,,,-99.99,,2013-02-01 09:11:00,
2013-02-01 02:21:00,40.0,7.0,-100.00,North,-999,-999.0,-999.0,24,-99.99,,,-99.99,,2013-02-01 09:21:00,
2013-02-01 02:32:00,40.0,7.0,-100.00,North,-999,-999.0,-999.0,24,-99.99,,,-99.99,,2013-02-01 09:32:00,
2013-02-01 02:41:00,41.0,5.0,-100.00,North,-999,-999.0,-999.0,21,-99.99,,,-99.99,,2013-02-01 09:41:00,
2013-02-01 02:51:00,41.0,5.0,-100.00,North,-999,-999.0,-999.0,21,-99.99,,,-99.99,,2013-02-01 09:51:00,
2013-02-01 03:01:00,-999.0,-99.9,-100.00,WSW,258,3.0,-999.0,-999,-99.99,,,-99.99,,2013-02-01 10:01:00,
2013-02-01 03:32:00,-999.0,-99.9,-100.00,WSW,258,3.0,-999.0,-999,-99.99,,,-99.99,,2013-02-01 10:32:00,
2013-02-01 03:42:00,39.0,7.0,-100.00,North,-999,-999.0,-999.0,25,-99.99,,,-99.99,,2013-02-01 10:42:00,
2013-02-01 03:52:00,39.0,7.0,-100.00,North,-999,-999.0,-999.0,25,-99.99,,,-99.99,,2013-02-01 10:52:00,
2013-02-01 04:01:00,39.0,7.0,-100.00,North,-999,-999.0,-999.0,25,-99.99,,,-99.99,,2013-02-01 11:01:00,
2013-02-01 04:11:00,39.0,7.0,-100.00,North,-999,-999.0,-999.0,25,-99.99,,,-99.99,,2013-02-01 11:11:00,
2013-02-01 04:22:00,-999.0,-99.9,-100.00,WSW,253,3.0,-999.0,-999,-99.99,,,-99.99,,2013-02-01 11:22:00,
2013-02-01 04:32:00,39.0,8.0,-100.00,North,-999,-999.0,-999.0,27,-99.99,,,-99.99,,2013-02-01 11:32:00,
2013-02-01 04:41:00,39.0,8.0,-100.00,North,-999,-999.0,-999.0,27,-99.99,,,-99.99,,2013-02-01 11:41:00,
2013-02-01 04:53:00,39.0,8.0,-100.00,North,-999,-999.0,-999.0,27,-99.99,,,-99.99,,2013-02-01 11:53:00,
2013-02-01 05:03:00,-999.0,-99.9,-100.00,WSW,253,2.0,-999.0,-999,-99.99,,,-99.99,,2013-02-01 12:03:00,
2013-02-01 05:12:00,38.0,9.0,-100.00,North,-999,-999.0,-999.0,29,-99.99,,,-99.99,,2013-02-01 12:12:00,
2013-02-01 05:22:00,38.0,9.0,-100.00,North,-999,-999.0,-999.0,29,-99.99,,,-99.99,,2013-02-01 12:22:00,
2013-02-01 05:32:00,39.0,10.0,-100.00,North,-999,-999.0,-999.0,29,-99.99,,,-99.99,,2013-02-01 12:32:00,
2013-02-01 05:42:00,39.0,10.0,-100.00,North,-999,-999.0,-999.0,29,-99.99,,,-99.99,,2013-02-01 12:42:00,
2013-02-01 05:52:00,39.0,10.0,-100.00,North,-999,-999.0,-999.0,29,-99.99,,,-99.99,,2013-02-01 12:52:00,
2013-02-01 06:01:00,39.0,10.0,-100.00,North,-999,-999.0,-999.0,29,-99.99,,,-99.99,,2013-02-01 13:01:00,
2013-02-01 06:22:00,-999.0,-99.9,-100.00,WSW,258,2.0,-999.0,-999,-99.99,,,-99.99,,2013-02-01 13:22:00,
2013-02-01 06:32:00,38.0,10.0,-100.00,North,-999,-999.0,-999.0,30,-99.99,,,-99.99,,2013-02-01 13:32:00,
2013-02-01 06:42:00,38.0,10.0,-100.00,North,-999,-999.0,-999.0,30,-99.99,,,-99.99,,2013-02-01 13:42:00,
2013-02-01 06:52:00,38.0,10.0,-100.00,North,-999,-999.0,-999.0,30,-99.99,,,-99.99,,2013-02-01 13:52:00,
2013-02-01 07:03:00,38.0,10.0,-100.00,North,-999,-999.0,-999.0,30,-99.99,,,-99.99,,2013-02-01 14:03:00,
2013-02-01 07:11:00,38.0,10.0,-100.00,North,-999,-999.0,-999.0,30,-99.99,,,-99.99,,2013-02-01 14:11:00,
2013-02-01 07:21:00,38.0,10.0,-100.00,North,-999,-999.0,-999.0,30,-99.99,,,-99.99,,2013-02-01 14:21:00,
2013-02-01 07:33:00,-999.0,-99.9,-100.00,West,270,2.0,-999.0,-999,-99.99,,,-99.99,,2013-02-01 14:33:00,
2013-02-01 07:43:00,-999.0,-99.9,-100.00,West,270,2.0,-999.0,-999,-99.99,,,-99.99,,2013-02-01 14:43:00,
2013-02-01 08:03:00,39.0,-99.9,-100.00,North,-999,-999.0,-999.0,-999,-99.99,,,-99.99,,2013-02-01 15:03:00,
2013-02-01 08:13:00,41.0,-99.9,-100.00,North,-999,-999.0,-999.0,-999,-99.99,,,-99.99,,2013-02-01 15:13:00,
2013-02-01 08:42:00,45.0,6.0,-100.00,North,-999,-999.0,-999.0,20,-99.99,,,-99.99,,2013-02-01 15:42:00,
2013-02-01 08:51:00,45.0,6.0,-100.00,North,-999,-999.0,-999.0,20,-99.99,,,-99.99,,2013-02-01 15:51:00,
2013-02-01 09:02:00,45.0,6.0,-100.00,North,-999,-999.0,-999.0,20,-99.99,,,-99.99,,2013-02-01 16:02:00,
2013-02-01 09:42:00,50.0,10.0,-100.00,North,-999,-999.0,-999.0,19,-99.99,,,-99.99,,2013-02-01 16:42:00,
2013-02-01 09:53:00,-999.0,-99.9,-100.00,West,270,1.0,-999.0,-999,-99.99,,,-99.99,,2013-02-01 16:53:00,
2013-02-01 10:03:00,-999.0,-99.9,-100.00,West,270,1.0,-999.0,-999,-99.99,,,-99.99,,2013-02-01 17:03:00,
2013-02-01 10:11:00,52.0,6.0,-100.00,North,-999,-999.0,-999.0,14,-99.99,,,-99.99,,2013-02-01 17:11:00,
2013-02-01 10:21:00,52.0,6.0,-100.00,North,-999,-999.0,-999.0,14,-99.99,,,-99.99,,2013-02-01 17:21:00,
2013-02-01 10:41:00,52.0,9.0,-100.00,North,-999,-999.0,-999.0,17,-99.99,,,-99.99,,2013-02-01 17:41:00,
2013-02-01 10:53:00,-999.0,-99.9,-100.00,WSW,258,2.0,-999.0,-999,-99.99,,,-99.99,,2013-02-01 17:53:00,
2013-02-01 11:03:00,-999.0,-99.9,-100.00,WSW,258,2.0,-999.0,-999,-99.99,,,-99.99,,2013-02-01 18:03:00,
2013-02-01 11:11:00,52.0,10.0,-100.00,North,-999,-999.0,-999.0,17,-99.99,,,-99.99,,2013-02-01 18:11:00,
2013-02-01 11:22:00,52.0,10.0,-100.00,North,-999,-999.0,-999.0,17,-99.99,,,-99.99,,2013-02-01 18:22:00,
2013-02-01 11:31:00,54.0,9.0,-100.00,North,-999,-999.0,-999.0,16,-99.99,,,-99.99,,2013-02-01 18:31:00,
2013-02-01 11:42:00,54.0,9.0,-100.00,North,-999,-999.0,-999.0,16,-99.99,,,-99.99,,2013-02-01 18:42:00,
2013-02-01 11:53:00,54.0,9.0,-100.00,North,-999,-999.0,-999.0,16,-99.99,,,-99.99,,2013-02-01 18:53:00,
2013-02-01 12:02:00,54.0,9.0,-100.00,North,-999,-999.0,-999.0,16,-99.99,,,-99.99,,2013-02-01 19:02:00,
2013-02-01 12:11:00,54.0,13.0,-100.00,North,-999,-999.0,-999.0,19,-99.99,,,-99.99,,2013-02-01 19:11:00,
2013-02-01 12:22:00,-999.0,-99.9,-100.00,WNW,303,2.0,-999.0,-999,-99.99,,,-99.99,,2013-02-01 19:22:00,
2013-02-01 12:32:00,54.0,11.0,-100.00,North,-999,-999.0,-999.0,17,-99.99,,,-99.99,,2013-02-01 19:32:00,
2013-02-01 13:02:00,53.0,12.0,-100.00,North,-999,-999.0,-999.0,19,-99.99,,,-99.99,,2013-02-01 20:02:00,
2013-02-01 13:11:00,53.0,12.0,-100.00,North,-999,-999.0,-999.0,19,-99.99,,,-99.99,,2013-02-01 20:11:00,
2013-02-01 13:22:00,-999.0,-99.9,-100.00,NW,320,4.0,-999.0,-999,-99.99,,,-99.99,,2013-02-01 20:22:00,
2013-02-01 13:31:00,55.0,11.0,-100.00,North,-999,-999.0,-999.0,17,-99.99,,,-99.99,,2013-02-01 20:31:00,
2013-02-01 13:41:00,55.0,11.0,-100.00,North,-999,-999.0,-999.0,17,-99.99,,,-99.99,,2013-02-01 20:41:00,
2013-02-01 13:52:00,56.0,14.0,-100.00,WSW,253,3.0,-999.0,18,-99.99,,,-99.99,,2013-02-01 20:52:00,
2013-02-01 14:01:00,56.0,14.0,-100.00,WSW,253,3.0,-999.0,18,-99.99,,,-99.99,,2013-02-01 21:01:00,
2013-02-01 14:11:00,56.0,14.0,-100.00,WSW,253,3.0,-999.0,18,-99.99,,,-99.99,,2013-02-01 21:11:00,
2013-02-01 14:21:00,56.0,14.0,-100.00,WSW,253,3.0,-999.0,18,-99.99,,,-99.99,,2013-02-01 21:21:00,
2013-02-01 14:32:00,-999.0,-99.9,-100.00,West,281,3.0,-999.0,-999,-99.99,,,-99.99,,2013-02-01 21:32:00,
2013-02-01 14:42:00,-999.0,-99.9,-100.00,West,281,3.0,-999.0,-999,-99.99,,,-99.99,,2013-02-01 21:42:00,
2013-02-01 14:52:00,56.0,20.0,-100.00,North,-999,-999.0,-999.0,24,-99.99,,,-99.99,,2013-02-01 21:52:00,
2013-02-01 15:01:00,56.0,20.0,-100.00,North,-999,-999.0,-999.0,24,-99.99,,,-99.99,,2013-02-01 22:01:00,
2013-02-01 15:11:00,-999.0,-99.9,-100.00,WNW,303,3.0,-999.0,-999,-99.99,,,-99.99,,2013-02-01 22:11:00,
2013-02-01 15:21:00,54.0,17.0,-100.00,North,-999,-999.0,-999.0,23,-99.99,,,-99.99,,2013-02-01 22:21:00,
2013-02-01 15:32:00,54.0,17.0,-100.00,North,-999,-999.0,-999.0,23,-99.99,,,-99.99,,2013-02-01 22:32:00,
2013-02-01 15:42:00,54.0,17.0,-100.00,North,-999,-999.0,-999.0,23,-99.99,,,-99.99,,2013-02-01 22:42:00,
2013-02-01 15:51:00,54.0,17.0,-100.00,West,270,3.0,-999.0,23,-99.99,,,-99.99,,2013-02-01 22:51:00,
2013-02-01 16:01:00,54.0,17.0,-100.00,West,270,3.0,-999.0,23,-99.99,,,-99.99,,2013-02-01 23:01:00,
2013-02-01 16:11:00,54.0,17.0,-100.00,West,270,3.0,-999.0,23,-99.99,,,-99.99,,2013-02-01 23:11:00,
2013-02-01 16:21:00,53.0,16.0,-100.00,West,275,3.0,-999.0,23,-99.99,,,-99.99,,2013-02-01 23:21:00,
2013-02-01 16:52:00,-999.0,-99.9,-100.00,West,275,2.0,-999.0,-999,-99.99,,,-99.99,,2013-02-01 23:52:00,
2013-02-01 17:02:00,47.0,-99.9,-100.00,North,-999,-999.0,-999.0,-999,-99.99,,,-99.99,,2013-02-02 00:02:00,
2013-02-01 17:11:00,45.0,18.0,-100.00,North,-999,-999.0,-999.0,33,-99.99,,,-99.99,,2013-02-02 00:11:00,
2013-02-01 17:22:00,-999.0,-99.9,-100.00,WSW,247,3.0,-999.0,-999,-99.99,,,-99.99,,2013-02-02 00:22:00,
2013-02-01 17:42:00,44.0,-99.9,-100.00,North,-999,-999.0,-999.0,-999,-99.99,,,-99.99,,2013-02-02 00:42:00,
2013-02-01 18:11:00,43.0,-99.9,-100.00,North,-999,-999.0,-999.0,-999,-99.99,,,-99.99,,2013-02-02 01:11:00,
2013-02-01 18:22:00,-999.0,-99.9,-100.00,WSW,247,2.0,-999.0,-999,-99.99,,,-99.99,,2013-02-02 01:22:00,
2013-02-01 18:32:00,-999.0,-99.9,-100.00,WSW,247,2.0,-999.0,-999,-99.99,,,-99.99,,2013-02-02 01:32:00,
2013-02-01 18:42:00,43.0,-99.9,-100.00,North,-999,-999.0,-999.0,-999,-99.99,,,-99.99,,2013-02-02 01:42:00,
2013-02-01 19:01:00,-999.0,-99.9,-100.00,West,270,2.0,-999.0,-999,-99.99,,,-99.99,,2013-02-02 02:01:00,
2013-02-01 19:11:00,41.0,-99.9,-100.00,North,-999,-999.0,-999.0,-999,-99.99,,,-99.99,,2013-02-02 02:11:00,
2013-02-01 19:22:00,41.0,-99.9,-100.00,North,-999,-999.0,-999.0,-999,-99.99,,,-99.99,,2013-02-02 02:22:00,
2013-02-01 19:32:00,41.0,-99.9,-100.00,North,-999,-999.0,-999.0,-999,-99.99,,,-99.99,,2013-02-02 02:32:00,
2013-02-01 19:42:00,41.0,-99.9,-100.00,North,-999,-999.0,-999.0,-999,-99.99,,,-99.99,,2013-02-02 02:42:00,
2013-02-01 19:52:00,-999.0,-99.9,-100.00,WSW,241,2.0,-999.0,-999,-99.99,,,-99.99,,2013-02-02 02:52:00,
2013-02-01 20:02:00,40.0,-99.9,-100.00,North,-999,-999.0,-999.0,-999,-99.99,,,-99.99,,2013-02-02 03:02:00,
2013-02-01 20:32:00,42.0,-99.9,-100.00,North,-999,-999.0,-999.0,-999,-99.99,,,-99.99,,2013-02-02 03:32:00,
2013-02-01 20:51:00,41.0,12.0,-100.00,North,-999,-999.0,-999.0,30,-99.99,,,-99.99,,2013-02-02 03:51:00,
2013-02-01 21:02:00,-999.0,-99.9,-100.00,WSW,241,1.0,-999.0,-999,-99.99,,,-99.99,,2013-02-02 04:02:00,
2013-02-01 21:11:00,-999.0,-99.9,-100.00,WSW,241,1.0,-999.0,-999,-99.99,,,-99.99,,2013-02-02 04:11:00,
2013-02-01 21:22:00,43.0,-99.9,-100.00,North,-999,-999.0,-999.0,-999,-99.99,,,-99.99,,2013-02-02 04:22:00,
2013-02-01 21:52:00,42.0,-99.9,-100.00,North,-999,-999.0,-999.0,-999,-99.99,,,-99.99,,2013-02-02 04:52:00,
2013-02-01 22:03:00,42.0,-99.9,-100.00,North,-999,-999.0,-999.0,-999,-99.99,,,-99.99,,2013-02-02 05:03:00,
2013-02-01 22:12:00,42.0,-99.9,-100.00,North,-999,-999.0,-999.0,-999,-99.99,,,-99.99,,2013-02-02 05:12:00,
2013-02-01 22:22:00,42.0,-99.9,-100.00,North,-999,-999.0,-999.0,-999,-99.99,,,-99.99,,2013-02-02 05:22:00,
2013-02-01 22:42:00,-999.0,-99.9,-100.00,SSW,208,1.0,-999.0,-999,-99.99,,,-99.99,,2013-02-02 05:42:00,
2013-02-01 22:52:00,42.0,-99.9,-100.00,North,-999,-999.0,-999.0,-999,-99.99,,,-99.99,,2013-02-02 05:52:00,
2013-02-01 23:02:00,42.0,-99.9,-100.00,North,-999,-999.0,-999.0,-999,-99.99,,,-99.99,,2013-02-02 06:02:00,
2013-02-01 23:12:00,42.0,-99.9,-100.00,North,-999,-999.0,-999.0,-999,-99.99,,,-99.99,,2013-02-02 06:12:00,
2013-02-01 23:22:00,43.0,-99.9,-100.00,North,-999,-999.0,-999.0,-999,-99.99,,,-99.99,,2013-02-02 06:22:00,
2013-02-01 23:42:00,42.0,-99.9,-100.00,North,-999,-999.0,-999.0,-999,-99.99,,,-99.99,,2013-02-02 06:42:00,
2013-02-01 23:52:00,42.0,-99.9,-100.00,North,-999,-999.0,-999.0,-999,-99.99,,,-99.99,,2013-02-02 06:52:00,